Time,TemperatureF,DewpointF,PressureIn,WindDirection,WindDirectionDegrees,WindSpeedMPH,WindSpeedGustMPH,Humidity,HourlyPrecipIn,Conditions,Clouds,dailyrainin,SoftwareType,DateUTC
2013-08-09 00:00:00,71.3,45.7,29.89,North,5,1.0,1.0,40,0.00,,,0.00,Wunderground v.1.15,2013-08-09 06:00:00,
2013-08-09 00:05:00,71.4,45.8,29.89,North,5,0.0,1.0,40,0.00,,,0.00,Wunderground v.1.15,2013-08-09 06:05:00,
2013-08-09 00:10:00,71.3,45.7,29.89,North,5,0.0,0.0,40,0.00,,,0.00,Wunderground v.1.15,2013-08-09 06:10:00,
2013-08-09 00:15:00,71.0,46.1,29.89,North,5,0.0,0.0,41,0.00,,,0.00,Wunderground v.1.15,2013-08-09 06:15:00,
2013-08-09 00:20:00,70.6,45.7,29.89,North,5,0.0,0.0,41,0.00,,,0.00,Wunderground v.1.15,2013-08-09 06:20:00,
2013-08-09 00:25:00,70.2,46.0,29.89,North,5,0.0,0.0,42,0.00,,,0.00,Wunderground v.1.15,2013-08-09 06:25:00,
2013-08-09 00:30:00,69.8,45.7,29.89,North,5,0.0,0.0,42,0.00,,,0.00,Wunderground v.1.15,2013-08-09 06:30:00,
2013-08-09 00:35:00,69.4,45.9,29.89,North,5,0.0,0.0,43,0.00,,,0.00,Wunderground v.1.15,2013-08-09 06:35:00,
2013-08-09 00:40:00,69.1,45.7,29.89,North,5,0.0,0.0,43,0.00,,,0.00,Wunderground v.1.15,2013-08-09 06:40:00,
2013-08-09 00:45:00,68.8,45.4,29.89,North,5,0.0,0.0,43,0.00,,,0.00,Wunderground v.1.15,2013-08-09 06:45:00,
2013-08-09 00:50:00,68.7,45.9,29.89,North,5,0.0,0.0,44,0.00,,,0.00,Wunderground v.1.15,2013-08-09 06:50:00,
2013-08-09 00:55:00,68.5,45.7,29.89,North,5,0.0,0.0,44,0.00,,,0.00,Wunderground v.1.15,2013-08-09 06:55:00,
2013-08-09 01:00:00,68.3,46.1,29.89,North,5,0.0,0.0,45,0.00,,,0.00,Wunderground v.1.15,2013-08-09 07:00:00,
2013-08-09 01:10:00,67.7,45.6,29.89,North,5,0.0,0.0,45,0.00,,,0.00,Wunderground v.1.15,2013-08-09 07:10:00,
2013-08-09 01:15:00,67.4,45.9,29.89,North,5,0.0,0.0,46,0.00,,,0.00,Wunderground v.1.15,2013-08-09 07:15:00,
2013-08-09 01:20:00,67.3,45.8,29.89,North,5,0.0,0.0,46,0.00,,,0.00,Wunderground v.1.15,2013-08-09 07:20:00,
2013-08-09 01:25:00,67.1,45.6,29.89,North,5,0.0,0.0,46,0.00,,,0.00,Wunderground v.1.15,2013-08-09 07:25:00,
2013-08-09 01:35:00,66.8,45.3,29.89,North,5,0.0,0.0,46,0.00,,,0.00,Wunderground v.1.15,2013-08-09 07:35:00,
2013-08-09 01:40:00,66.7,45.3,29.89,North,5,0.0,0.0,46,0.00,,,0.00,Wunderground v.1.15,2013-08-09 07:40:00,
2013-08-09 01:45:00,66.7,45.3,29.89,North,5,0.0,0.0,46,0.00,,,0.00,Wunderground v.1.15,2013-08-09 07:45:00,
2013-08-09 01:50:00,66.6,45.2,29.89,North,5,0.0,0.0,46,0.00,,,0.00,Wunderground v.1.15,2013-08-09 07:50:00,
2013-08-09 02:00:00,66.3,45.5,29.89,North,5,0.0,0.0,47,0.00,,,0.00,Wunderground v.1.15,2013-08-09 08:00:00,
2013-08-09 02:05:00,66.2,45.4,29.89,North,5,0.0,0.0,47,0.00,,,0.00,Wunderground v.1.15,2013-08-09 08:05:00,
2013-08-09 02:10:00,66.1,45.3,29.90,North,5,0.0,0.0,47,0.00,,,0.00,Wunderground v.1.15,2013-08-09 08:10:00,
2013-08-09 02:15:00,66.0,45.2,29.90,North,5,0.0,0.0,47,0.00,,,0.00,Wunderground v.1.15,2013-08-09 08:15:00,
2013-08-09 02:20:00,65.8,45.6,29.90,North,5,0.0,0.0,48,0.00,,,0.00,Wunderground v.1.15,2013-08-09 08:20:00,
2013-08-09 02:25:00,65.7,45.5,29.90,North,5,0.0,0.0,48,0.00,,,0.00,Wunderground v.1.15,2013-08-09 08:25:00,
2013-08-09 02:30:00,65.4,45.7,29.90,North,5,0.0,0.0,49,0.00,,,0.00,Wunderground v.1.15,2013-08-09 08:30:00,
2013-08-09 02:35:00,65.3,45.1,29.90,North,5,0.0,0.0,48,0.00,,,0.00,Wunderground v.1.15,2013-08-09 08:35:00,
2013-08-09 02:40:00,65.1,45.5,29.90,North,5,0.0,0.0,49,0.00,,,0.00,Wunderground v.1.15,2013-08-09 08:40:00,
2013-08-09 02:50:00,65.0,44.8,29.90,North,5,0.0,0.0,48,0.00,,,0.00,Wunderground v.1.15,2013-08-09 08:50:00,
2013-08-09 02:55:00,65.0,44.8,29.90,North,5,0.0,0.0,48,0.00,,,0.00,Wunderground v.1.15,2013-08-09 08:55:00,
2013-08-09 03:00:00,65.1,44.9,29.90,North,5,0.0,0.0,48,0.00,,,0.00,Wunderground v.1.15,2013-08-09 09:00:00,
2013-08-09 03:05:00,65.1,44.9,29.90,North,5,0.0,0.0,48,0.00,,,0.00,Wunderground v.1.15,2013-08-09 09:05:00,
2013-08-09 03:10:00,65.1,44.9,29.90,North,5,0.0,0.0,48,0.00,,,0.00,Wunderground v.1.15,2013-08-09 09:10:00,
2013-08-09 03:15:00,65.1,44.9,29.90,North,5,0.0,0.0,48,0.00,,,0.00,Wunderground v.1.15,2013-08-09 09:15:00,
2013-08-09 03:20:00,65.0,44.8,29.90,North,5,0.0,0.0,48,0.00,,,0.00,Wunderground v.1.15,2013-08-09 09:20:00,
2013-08-09 03:25:00,64.9,44.7,29.90,North,5,0.0,0.0,48,0.00,,,0.00,Wunderground v.1.15,2013-08-09 09:25:00,
2013-08-09 03:30:00,64.8,44.6,29.90,North,5,0.0,0.0,48,0.00,,,0.00,Wunderground v.1.15,2013-08-09 09:30:00,
2013-08-09 03:35:00,64.6,45.0,29.90,North,5,0.0,0.0,49,0.00,,,0.00,Wunderground v.1.15,2013-08-09 09:35:00,
2013-08-09 03:40:00,64.4,44.8,29.90,North,5,0.0,0.0,49,0.00,,,0.00,Wunderground v.1.15,2013-08-09 09:40:00,
2013-08-09 03:45:00,64.3,45.3,29.90,North,5,0.0,0.0,50,0.00,,,0.00,Wunderground v.1.15,2013-08-09 09:45:00,
2013-08-09 03:50:00,64.1,45.1,29.90,North,5,0.0,0.0,50,0.00,,,0.00,Wunderground v.1.15,2013-08-09 09:50:00,
2013-08-09 03:55:00,63.9,45.4,29.90,North,5,0.0,0.0,51,0.00,,,0.00,Wunderground v.1.15,2013-08-09 09:55:00,
2013-08-09 04:00:00,63.7,45.2,29.90,North,5,0.0,0.0,51,0.00,,,0.00,Wunderground v.1.15,2013-08-09 10:00:00,
2013-08-09 04:05:00,63.5,45.6,29.90,North,5,0.0,0.0,52,0.00,,,0.00,Wunderground v.1.15,2013-08-09 10:05:00,
2013-08-09 04:10:00,63.3,45.4,29.91,North,5,0.0,0.0,52,0.00,,,0.00,Wunderground v.1.15,2013-08-09 10:10:00,
2013-08-09 04:15:00,63.1,45.2,29.91,North,5,0.0,0.0,52,0.00,,,0.00,Wunderground v.1.15,2013-08-09 10:15:00,
2013-08-09 04:20:00,62.8,45.4,29.91,North,5,0.0,0.0,53,0.00,,,0.00,Wunderground v.1.15,2013-08-09 10:20:00,
2013-08-09 04:25:00,62.6,45.7,29.92,North,5,0.0,0.0,54,0.00,,,0.00,Wunderground v.1.15,2013-08-09 10:25:00,
2013-08-09 04:30:00,62.3,45.4,29.92,North,5,0.0,0.0,54,0.00,,,0.00,Wunderground v.1.15,2013-08-09 10:30:00,
2013-08-09 04:35:00,62.2,45.3,29.92,North,5,0.0,0.0,54,0.00,,,0.00,Wunderground v.1.15,2013-08-09 10:35:00,
2013-08-09 04:40:00,62.1,45.2,29.92,North,5,0.0,0.0,54,0.00,,,0.00,Wunderground v.1.15,2013-08-09 10:40:00,
2013-08-09 04:45:00,62.0,45.2,29.92,North,5,0.0,0.0,54,0.00,,,0.00,Wunderground v.1.15,2013-08-09 10:45:00,
2013-08-09 04:50:00,61.9,45.5,29.92,North,5,0.0,0.0,55,0.00,,,0.00,Wunderground v.1.15,2013-08-09 10:50:00,
2013-08-09 05:00:00,61.9,45.5,29.92,North,5,0.0,0.0,55,0.00,,,0.00,Wunderground v.1.15,2013-08-09 11:00:00,
2013-08-09 05:05:00,62.0,45.6,29.92,North,5,0.0,0.0,55,0.00,,,0.00,Wunderground v.1.15,2013-08-09 11:05:00,
2013-08-09 05:10:00,62.0,45.6,29.93,North,5,0.0,0.0,55,0.00,,,0.00,Wunderground v.1.15,2013-08-09 11:10:00,
2013-08-09 05:20:00,62.2,45.8,29.93,North,5,0.0,0.0,55,0.00,,,0.00,Wunderground v.1.15,2013-08-09 11:20:00,
2013-08-09 05:25:00,62.2,45.8,29.93,North,5,0.0,0.0,55,0.00,,,0.00,Wunderground v.1.15,2013-08-09 11:25:00,
2013-08-09 05:35:00,62.3,45.9,29.93,North,5,0.0,0.0,55,0.00,,,0.00,Wunderground v.1.15,2013-08-09 11:35:00,
2013-08-09 05:40:00,62.5,46.1,29.93,North,5,0.0,0.0,55,0.00,,,0.00,Wunderground v.1.15,2013-08-09 11:40:00,
2013-08-09 05:50:00,62.6,46.7,29.94,North,5,0.0,0.0,56,0.00,,,0.00,Wunderground v.1.15,2013-08-09 11:50:00,
2013-08-09 06:00:00,62.6,46.7,29.94,North,5,0.0,0.0,56,0.00,,,0.00,Wunderground v.1.15,2013-08-09 12:00:00,
2013-08-09 06:05:00,62.6,46.7,29.95,North,5,0.0,0.0,56,0.00,,,0.00,Wunderground v.1.15,2013-08-09 12:05:00,
2013-08-09 06:10:00,62.6,46.7,29.94,North,5,0.0,0.0,56,0.00,,,0.00,Wunderground v.1.15,2013-08-09 12:10:00,
2013-08-09 06:15:00,62.5,46.6,29.95,North,5,0.0,0.0,56,0.00,,,0.00,Wunderground v.1.15,2013-08-09 12:15:00,
2013-08-09 06:20:00,62.2,46.3,29.95,North,5,0.0,0.0,56,0.00,,,0.00,Wunderground v.1.15,2013-08-09 12:20:00,
2013-08-09 06:25:00,62.0,46.6,29.95,North,5,0.0,0.0,57,0.00,,,0.00,Wunderground v.1.15,2013-08-09 12:25:00,
2013-08-09 06:30:00,61.8,46.4,29.96,North,5,0.0,0.0,57,0.00,,,0.00,Wunderground v.1.15,2013-08-09 12:30:00,
2013-08-09 06:35:00,61.6,46.7,29.95,North,5,0.0,0.0,58,0.00,,,0.00,Wunderground v.1.15,2013-08-09 12:35:00,
2013-08-09 06:40:00,61.6,46.7,29.95,North,5,0.0,0.0,58,0.00,,,0.00,Wunderground v.1.15,2013-08-09 12:40:00,
2013-08-09 06:45:00,61.7,46.8,29.95,North,5,0.0,0.0,58,0.00,,,0.00,Wunderground v.1.15,2013-08-09 12:45:00,
2013-08-09 06:50:00,61.8,46.9,29.96,North,5,0.0,0.0,58,0.00,,,0.00,Wunderground v.1.15,2013-08-09 12:50:00,
2013-08-09 06:55:00,61.9,47.0,29.95,North,5,0.0,0.0,58,0.00,,,0.00,Wunderground v.1.15,2013-08-09 12:55:00,
2013-08-09 07:00:00,62.1,47.1,29.96,North,5,0.0,0.0,58,0.00,,,0.00,Wunderground v.1.15,2013-08-09 13:00:00,
2013-08-09 07:05:00,62.4,47.4,29.96,North,5,0.0,0.0,58,0.00,,,0.00,Wunderground v.1.15,2013-08-09 13:05:00,
2013-08-09 07:10:00,62.8,47.3,29.96,North,5,0.0,0.0,57,0.00,,,0.00,Wunderground v.1.15,2013-08-09 13:10:00,
2013-08-09 07:15:00,63.0,47.5,29.97,North,5,0.0,0.0,57,0.00,,,0.00,Wunderground v.1.15,2013-08-09 13:15:00,
2013-08-09 07:20:00,63.1,47.6,29.97,North,5,0.0,0.0,57,0.00,,,0.00,Wunderground v.1.15,2013-08-09 13:20:00,
2013-08-09 07:25:00,63.2,47.7,29.97,North,5,0.0,0.0,57,0.00,,,0.00,Wunderground v.1.15,2013-08-09 13:25:00,
2013-08-09 07:30:00,63.4,47.4,29.97,North,5,0.0,0.0,56,0.00,,,0.00,Wunderground v.1.15,2013-08-09 13:30:00,
2013-08-09 07:35:00,63.8,47.8,29.97,North,5,0.0,0.0,56,0.00,,,0.00,Wunderground v.1.15,2013-08-09 13:35:00,
2013-08-09 07:40:00,64.2,48.2,29.98,North,5,0.0,0.0,56,0.00,,,0.00,Wunderground v.1.15,2013-08-09 13:40:00,
2013-08-09 07:45:00,64.8,48.2,29.97,North,5,0.0,2.0,55,0.00,,,0.00,Wunderground v.1.15,2013-08-09 13:45:00,
2013-08-09 07:50:00,65.4,48.3,29.97,North,5,0.0,0.0,54,0.00,,,0.00,Wunderground v.1.15,2013-08-09 13:50:00,
2013-08-09 07:55:00,65.6,48.5,29.98,North,5,0.0,0.0,54,0.00,,,0.00,Wunderground v.1.15,2013-08-09 13:55:00,
2013-08-09 08:00:00,65.8,48.2,29.98,North,5,0.0,3.0,53,0.00,,,0.00,Wunderground v.1.15,2013-08-09 14:00:00,
2013-08-09 08:05:00,65.8,48.2,29.98,North,5,1.0,3.0,53,0.00,,,0.00,Wunderground v.1.15,2013-08-09 14:05:00,
2013-08-09 08:10:00,65.9,48.3,29.98,North,5,1.0,1.0,53,0.00,,,0.00,Wunderground v.1.15,2013-08-09 14:10:00,
2013-08-09 08:15:00,66.3,48.1,29.98,North,5,0.0,1.0,52,0.00,,,0.00,Wunderground v.1.15,2013-08-09 14:15:00,
2013-08-09 08:20:00,66.7,48.5,29.99,North,5,1.0,1.0,52,0.00,,,0.00,Wunderground v.1.15,2013-08-09 14:20:00,
2013-08-09 08:25:00,67.1,48.4,29.99,North,5,0.0,1.0,51,0.00,,,0.00,Wunderground v.1.15,2013-08-09 14:25:00,
2013-08-09 08:30:00,67.7,48.9,29.99,North,5,0.0,2.0,51,0.00,,,0.00,Wunderground v.1.15,2013-08-09 14:30:00,
2013-08-09 08:35:00,68.0,48.7,29.99,North,5,0.0,2.0,50,0.00,,,0.00,Wunderground v.1.15,2013-08-09 14:35:00,
2013-08-09 08:40:00,68.3,48.4,29.99,North,5,0.0,0.0,49,0.00,,,0.00,Wunderground v.1.15,2013-08-09 14:40:00,
2013-08-09 08:45:00,68.7,48.2,29.99,North,5,0.0,3.0,48,0.00,,,0.00,Wunderground v.1.15,2013-08-09 14:45:00,
2013-08-09 08:50:00,68.9,48.4,29.99,North,5,1.0,1.0,48,0.00,,,0.00,Wunderground v.1.15,2013-08-09 14:50:00,
2013-08-09 08:55:00,69.2,48.7,29.99,North,5,0.0,1.0,48,0.00,,,0.00,Wunderground v.1.15,2013-08-09 14:55:00,
2013-08-09 09:00:00,69.6,48.5,29.99,North,5,0.0,0.0,47,0.00,,,0.00,Wunderground v.1.15,2013-08-09 15:00:00,
2013-08-09 09:05:00,69.9,48.7,29.99,North,5,0.0,3.0,47,0.00,,,0.00,Wunderground v.1.15,2013-08-09 15:05:00,
2013-08-09 09:15:00,70.1,47.8,29.99,North,5,2.0,2.0,45,0.00,,,0.00,Wunderground v.1.15,2013-08-09 15:15:00,
2013-08-09 09:25:00,71.3,48.3,29.99,North,5,1.0,1.0,44,0.00,,,0.00,Wunderground v.1.15,2013-08-09 15:25:00,
2013-08-09 09:30:00,71.8,48.7,29.99,North,5,1.0,1.0,44,0.00,,,0.00,Wunderground v.1.15,2013-08-09 15:30:00,
2013-08-09 09:35:00,72.2,48.5,29.99,North,5,0.0,1.0,43,0.00,,,0.00,Wunderground v.1.15,2013-08-09 15:35:00,
2013-08-09 09:40:00,72.1,48.4,29.99,North,9,1.0,1.0,43,0.00,,,0.00,Wunderground v.1.15,2013-08-09 15:40:00,
2013-08-09 09:45:00,72.1,48.4,29.99,North,5,1.0,1.0,43,0.00,,,0.00,Wunderground v.1.15,2013-08-09 15:45:00,
2013-08-09 09:50:00,72.1,48.4,29.99,North,5,1.0,1.0,43,0.00,,,0.00,Wunderground v.1.15,2013-08-09 15:50:00,
2013-08-09 09:55:00,72.5,48.7,29.99,North,5,1.0,1.0,43,0.00,,,0.00,Wunderground v.1.15,2013-08-09 15:55:00,
2013-08-09 10:00:00,72.6,48.8,30.00,North,5,1.0,1.0,43,0.00,,,0.00,Wunderground v.1.15,2013-08-09 16:00:00,
2013-08-09 10:05:00,73.1,48.6,29.99,North,5,1.0,1.0,42,0.00,,,0.00,Wunderground v.1.15,2013-08-09 16:05:00,
2013-08-09 10:10:00,73.4,48.3,29.99,NNE,28,1.0,1.0,41,0.00,,,0.00,Wunderground v.1.15,2013-08-09 16:10:00,
2013-08-09 10:15:00,73.4,48.3,29.99,NNE,16,1.0,1.0,41,0.00,,,0.00,Wunderground v.1.15,2013-08-09 16:15:00,
2013-08-09 10:20:00,73.7,47.9,29.99,NNE,16,1.0,1.0,40,0.00,,,0.00,Wunderground v.1.15,2013-08-09 16:20:00,
2013-08-09 10:30:00,74.2,48.3,29.99,NNE,16,1.0,1.0,40,0.00,,,0.00,Wunderground v.1.15,2013-08-09 16:30:00,
2013-08-09 10:35:00,74.4,47.8,29.99,NNE,16,0.0,1.0,39,0.00,,,0.00,Wunderground v.1.15,2013-08-09 16:35:00,
2013-08-09 10:40:00,74.7,48.1,29.99,NNW,345,1.0,1.0,39,0.00,,,0.00,Wunderground v.1.15,2013-08-09 16:40:00,
2013-08-09 10:45:00,74.8,48.2,29.99,NE,44,1.0,3.0,39,0.00,,,0.00,Wunderground v.1.15,2013-08-09 16:45:00,
2013-08-09 10:50:00,75.1,48.4,29.99,NE,44,1.0,1.0,39,0.00,,,0.00,Wunderground v.1.15,2013-08-09 16:50:00,
2013-08-09 10:55:00,75.5,48.1,29.99,NNE,26,0.0,1.0,38,0.00,,,0.00,Wunderground v.1.15,2013-08-09 16:55:00,
2013-08-09 11:00:00,76.0,48.6,29.99,NNE,26,0.0,0.0,38,0.00,,,0.00,Wunderground v.1.15,2013-08-09 17:00:00,
2013-08-09 11:05:00,76.7,49.2,29.99,NNE,26,0.0,0.0,38,0.00,,,0.00,Wunderground v.1.15,2013-08-09 17:05:00,
2013-08-09 11:10:00,77.4,48.3,29.98,NNE,26,0.0,0.0,36,0.00,,,0.00,Wunderground v.1.15,2013-08-09 17:10:00,
2013-08-09 11:15:00,77.8,48.7,29.99,NNE,26,1.0,1.0,36,0.00,,,0.00,Wunderground v.1.15,2013-08-09 17:15:00,
2013-08-09 11:20:00,78.1,47.4,29.99,NNE,25,0.0,0.0,34,0.00,,,0.00,Wunderground v.1.15,2013-08-09 17:20:00,
2013-08-09 11:25:00,78.2,46.7,29.98,NNE,25,0.0,0.0,33,0.00,,,0.00,Wunderground v.1.15,2013-08-09 17:25:00,
2013-08-09 11:30:00,78.7,48.0,29.98,NNE,25,0.0,4.0,34,0.00,,,0.00,Wunderground v.1.15,2013-08-09 17:30:00,
2013-08-09 11:35:00,79.1,46.7,29.98,NNE,25,0.0,4.0,32,0.00,,,0.00,Wunderground v.1.15,2013-08-09 17:35:00,
2013-08-09 11:40:00,79.5,47.9,29.98,NNE,22,1.0,2.0,33,0.00,,,0.00,Wunderground v.1.15,2013-08-09 17:40:00,
2013-08-09 11:45:00,80.0,47.5,29.98,North,5,1.0,5.0,32,0.00,,,0.00,Wunderground v.1.15,2013-08-09 17:45:00,
2013-08-09 11:50:00,80.0,47.5,29.98,NNE,27,1.0,1.0,32,0.00,,,0.00,Wunderground v.1.15,2013-08-09 17:50:00,
2013-08-09 11:55:00,80.2,46.8,29.97,NNE,27,1.0,1.0,31,0.00,,,0.00,Wunderground v.1.15,2013-08-09 17:55:00,
2013-08-09 12:00:00,80.7,47.2,29.97,NNE,27,0.0,0.0,31,0.00,,,0.00,Wunderground v.1.15,2013-08-09 18:00:00,
2013-08-09 12:05:00,80.8,45.6,29.97,NNE,26,1.0,1.0,29,0.00,,,0.00,Wunderground v.1.15,2013-08-09 18:05:00,
2013-08-09 12:10:00,81.0,46.6,29.97,NNE,26,0.0,1.0,30,0.00,,,0.00,Wunderground v.1.15,2013-08-09 18:10:00,
2013-08-09 12:15:00,81.1,46.7,29.97,NNE,26,0.0,1.0,30,0.00,,,0.00,Wunderground v.1.15,2013-08-09 18:15:00,
2013-08-09 12:20:00,81.6,47.2,29.97,NNE,25,0.0,0.0,30,0.00,,,0.00,Wunderground v.1.15,2013-08-09 18:20:00,
2013-08-09 12:25:00,82.2,46.8,29.97,NNE,25,0.0,0.0,29,0.00,,,0.00,Wunderground v.1.15,2013-08-09 18:25:00,
2013-08-09 12:30:00,83.1,47.5,29.97,NNE,25,0.0,1.0,29,0.00,,,0.00,Wunderground v.1.15,2013-08-09 18:30:00,
2013-08-09 12:35:00,83.6,47.0,29.96,NNE,25,0.0,1.0,28,0.00,,,0.00,Wunderground v.1.15,2013-08-09 18:35:00,
2013-08-09 12:40:00,82.6,46.2,29.96,NNE,25,0.0,0.0,28,0.00,,,0.00,Wunderground v.1.15,2013-08-09 18:40:00,
2013-08-09 12:45:00,82.1,46.7,29.96,NNE,25,0.0,0.0,29,0.00,,,0.00,Wunderground v.1.15,2013-08-09 18:45:00,
2013-08-09 12:50:00,82.6,46.2,29.96,NNE,25,0.0,2.0,28,0.00,,,0.00,Wunderground v.1.15,2013-08-09 18:50:00,
2013-08-09 12:55:00,83.3,47.7,29.95,NNE,25,0.0,2.0,29,0.00,,,0.00,Wunderground v.1.15,2013-08-09 18:55:00,
2013-08-09 13:00:00,83.8,46.2,29.95,NNE,25,0.0,0.0,27,0.00,,,0.00,Wunderground v.1.15,2013-08-09 19:00:00,
2013-08-09 13:05:00,83.8,46.2,29.95,NNE,24,1.0,1.0,27,0.00,,,0.00,Wunderground v.1.15,2013-08-09 19:05:00,
2013-08-09 13:15:00,83.9,46.3,29.94,NNE,16,0.0,1.0,27,0.00,,,0.00,Wunderground v.1.15,2013-08-09 19:15:00,
2013-08-09 13:20:00,84.6,46.9,29.94,NNE,16,0.0,0.0,27,0.00,,,0.00,Wunderground v.1.15,2013-08-09 19:20:00,
2013-08-09 13:25:00,85.2,47.4,29.94,NNE,16,0.0,0.0,27,0.00,,,0.00,Wunderground v.1.15,2013-08-09 19:25:00,
2013-08-09 13:30:00,85.5,46.7,29.94,NNE,16,0.0,1.0,26,0.00,,,0.00,Wunderground v.1.15,2013-08-09 19:30:00,
2013-08-09 13:35:00,85.6,47.8,29.94,NNE,16,0.0,1.0,27,0.00,,,0.00,Wunderground v.1.15,2013-08-09 19:35:00,
2013-08-09 13:40:00,86.1,47.2,29.93,NNE,16,0.0,0.0,26,0.00,,,0.00,Wunderground v.1.15,2013-08-09 19:40:00,
2013-08-09 13:45:00,87.0,48.0,29.93,North,10,0.0,0.0,26,0.00,,,0.00,Wunderground v.1.15,2013-08-09 19:45:00,
2013-08-09 13:50:00,88.1,46.8,29.93,North,360,0.0,0.0,24,0.00,,,0.00,Wunderground v.1.15,2013-08-09 19:50:00,
2013-08-09 13:55:00,88.5,47.1,29.92,North,360,0.0,0.0,24,0.00,,,0.00,Wunderground v.1.15,2013-08-09 19:55:00,
2013-08-09 14:00:00,88.4,45.9,29.92,North,360,0.0,0.0,23,0.00,,,0.00,Wunderground v.1.15,2013-08-09 20:00:00,
2013-08-09 14:05:00,88.1,46.8,29.92,ESE,109,0.0,0.0,24,0.00,,,0.00,Wunderground v.1.15,2013-08-09 20:05:00,
2013-08-09 14:10:00,88.1,46.8,29.92,ESE,109,0.0,0.0,24,0.00,,,0.00,Wunderground v.1.15,2013-08-09 20:10:00,
2013-08-09 14:15:00,88.3,46.9,29.92,ESE,109,0.0,0.0,24,0.00,,,0.00,Wunderground v.1.15,2013-08-09 20:15:00,
2013-08-09 14:20:00,88.6,47.2,29.92,ESE,110,0.0,0.0,24,0.00,,,0.00,Wunderground v.1.15,2013-08-09 20:20:00,
2013-08-09 14:25:00,89.0,46.4,29.92,ESE,110,0.0,0.0,23,0.00,,,0.00,Wunderground v.1.15,2013-08-09 20:25:00,
2013-08-09 14:30:00,88.8,46.2,29.92,ESE,110,0.0,1.0,23,0.00,,,0.00,Wunderground v.1.15,2013-08-09 20:30:00,
2013-08-09 14:35:00,88.6,46.1,29.92,ESE,110,0.0,1.0,23,0.00,,,0.00,Wunderground v.1.15,2013-08-09 20:35:00,
2013-08-09 14:40:00,88.3,45.8,29.92,WSW,244,0.0,0.0,23,0.00,,,0.00,Wunderground v.1.15,2013-08-09 20:40:00,
2013-08-09 14:45:00,88.4,45.9,29.92,WSW,244,0.0,0.0,23,0.00,,,0.00,Wunderground v.1.15,2013-08-09 20:45:00,
2013-08-09 14:50:00,88.8,46.2,29.92,WSW,244,0.0,0.0,23,0.00,,,0.00,Wunderground v.1.15,2013-08-09 20:50:00,
2013-08-09 14:55:00,88.6,46.1,29.92,WSW,244,0.0,0.0,23,0.00,,,0.00,Wunderground v.1.15,2013-08-09 20:55:00,
2013-08-09 15:00:00,88.9,47.4,29.92,WSW,244,0.0,0.0,24,0.00,,,0.00,Wunderground v.1.15,2013-08-09 21:00:00,
2013-08-09 15:05:00,88.8,43.8,29.92,South,177,0.0,0.0,21,0.00,,,0.00,Wunderground v.1.15,2013-08-09 21:05:00,
2013-08-09 15:10:00,88.5,46.0,29.92,South,169,0.0,0.0,23,0.00,,,0.00,Wunderground v.1.15,2013-08-09 21:10:00,
2013-08-09 15:15:00,89.2,46.6,29.91,South,169,0.0,0.0,23,0.00,,,0.00,Wunderground v.1.15,2013-08-09 21:15:00,
2013-08-09 15:20:00,90.1,44.9,29.91,South,169,0.0,0.0,21,0.00,,,0.00,Wunderground v.1.15,2013-08-09 21:20:00,
2013-08-09 15:30:00,91.2,44.5,29.91,SW,218,0.0,1.0,20,0.00,,,0.00,Wunderground v.1.15,2013-08-09 21:30:00,
2013-08-09 15:35:00,92.5,44.2,29.91,SW,223,0.0,1.0,19,0.00,,,0.00,Wunderground v.1.15,2013-08-09 21:35:00,
2013-08-09 15:40:00,93.0,43.2,29.90,SW,225,0.0,0.0,18,0.00,,,0.00,Wunderground v.1.15,2013-08-09 21:40:00,
2013-08-09 15:45:00,93.5,43.6,29.90,SW,229,0.0,0.0,18,0.00,,,0.00,Wunderground v.1.15,2013-08-09 21:45:00,
2013-08-09 15:50:00,93.4,42.1,29.89,SW,225,0.0,0.0,17,0.00,,,0.00,Wunderground v.1.15,2013-08-09 21:50:00,
2013-08-09 15:55:00,92.3,41.2,29.89,SSE,151,0.0,0.0,17,0.00,,,0.00,Wunderground v.1.15,2013-08-09 21:55:00,
2013-08-09 16:00:00,91.9,40.9,29.89,SSE,152,0.0,0.0,17,0.00,,,0.00,Wunderground v.1.15,2013-08-09 22:00:00,
2013-08-09 16:05:00,92.4,42.7,29.89,SW,221,0.0,0.0,18,0.00,,,0.00,Wunderground v.1.15,2013-08-09 22:05:00,
2013-08-09 16:10:00,92.3,41.2,29.89,SW,221,0.0,0.0,17,0.00,,,0.00,Wunderground v.1.15,2013-08-09 22:10:00,
2013-08-09 16:15:00,91.6,42.1,29.89,SSE,159,0.0,1.0,18,0.00,,,0.00,Wunderground v.1.15,2013-08-09 22:15:00,
2013-08-09 16:20:00,91.5,40.5,29.89,SSE,160,0.0,0.0,17,0.00,,,0.00,Wunderground v.1.15,2013-08-09 22:20:00,
2013-08-09 16:25:00,91.8,40.8,29.89,SW,236,0.0,0.0,17,0.00,,,0.00,Wunderground v.1.15,2013-08-09 22:25:00,
2013-08-09 16:30:00,92.3,39.6,29.89,SW,231,0.0,1.0,16,0.00,,,0.00,Wunderground v.1.15,2013-08-09 22:30:00,
2013-08-09 16:35:00,92.1,39.5,29.89,SW,231,0.0,1.0,16,0.00,,,0.00,Wunderground v.1.15,2013-08-09 22:35:00,
2013-08-09 16:40:00,91.5,40.5,29.89,SW,231,0.0,0.0,17,0.00,,,0.00,Wunderground v.1.15,2013-08-09 22:40:00,
2013-08-09 16:45:00,91.4,41.9,29.89,SW,230,0.0,0.0,18,0.00,,,0.00,Wunderground v.1.15,2013-08-09 22:45:00,
2013-08-09 16:50:00,91.7,40.7,29.89,SW,231,0.0,2.0,17,0.00,,,0.00,Wunderground v.1.15,2013-08-09 22:50:00,
2013-08-09 16:55:00,91.7,40.7,29.89,WSW,240,0.0,2.0,17,0.00,,,0.00,Wunderground v.1.15,2013-08-09 22:55:00,
2013-08-09 17:00:00,92.0,39.4,29.89,WSW,240,0.0,0.0,16,0.00,,,0.00,Wunderground v.1.15,2013-08-09 23:00:00,
2013-08-09 17:05:00,92.1,37.8,29.88,WSW,240,0.0,1.0,15,0.00,,,0.00,Wunderground v.1.15,2013-08-09 23:05:00,
2013-08-09 17:10:00,92.2,39.5,29.88,WSW,241,0.0,0.0,16,0.00,,,0.00,Wunderground v.1.15,2013-08-09 23:10:00,
2013-08-09 17:15:00,92.1,39.5,29.88,WSW,240,0.0,0.0,16,0.00,,,0.00,Wunderground v.1.15,2013-08-09 23:15:00,
2013-08-09 17:20:00,91.9,40.9,29.88,WSW,238,0.0,0.0,17,0.00,,,0.00,Wunderground v.1.15,2013-08-09 23:20:00,
2013-08-09 17:25:00,91.5,40.5,29.88,SW,236,0.0,0.0,17,0.00,,,0.00,Wunderground v.1.15,2013-08-09 23:25:00,
2013-08-09 17:30:00,91.0,41.6,29.88,SW,236,0.0,3.0,18,0.00,,,0.00,Wunderground v.1.15,2013-08-09 23:30:00,
2013-08-09 17:35:00,90.7,41.4,29.88,SW,236,0.0,3.0,18,0.00,,,0.00,Wunderground v.1.15,2013-08-09 23:35:00,
2013-08-09 17:40:00,90.5,42.6,29.87,WSW,237,0.0,0.0,19,0.00,,,0.00,Wunderground v.1.15,2013-08-09 23:40:00,
2013-08-09 17:45:00,89.9,42.1,29.88,SW,234,0.0,0.0,19,0.00,,,0.00,Wunderground v.1.15,2013-08-09 23:45:00,
2013-08-09 17:50:00,89.8,42.0,29.88,SW,234,0.0,0.0,19,0.00,,,0.00,Wunderground v.1.15,2013-08-09 23:50:00,
2013-08-09 17:55:00,89.7,43.3,29.88,SW,233,0.0,1.0,20,0.00,,,0.00,Wunderground v.1.15,2013-08-09 23:55:00,
2013-08-09 18:00:00,89.3,43.0,29.88,SW,233,0.0,0.0,20,0.00,,,0.00,Wunderground v.1.15,2013-08-10 00:00:00,
2013-08-09 18:05:00,88.6,43.7,29.88,SW,233,0.0,1.0,21,0.00,,,0.00,Wunderground v.1.15,2013-08-10 00:05:00,
2013-08-09 18:15:00,87.6,44.1,29.88,SW,233,0.0,0.0,22,0.00,,,0.00,Wunderground v.1.15,2013-08-10 00:15:00,
2013-08-09 18:25:00,86.5,43.1,29.88,SW,233,0.0,0.0,22,0.00,,,0.00,Wunderground v.1.15,2013-08-10 00:25:00,
2013-08-09 18:30:00,86.1,44.0,29.89,SW,233,0.0,2.0,23,0.00,,,0.00,Wunderground v.1.15,2013-08-10 00:30:00,
2013-08-09 18:35:00,85.6,43.5,29.89,SW,233,0.0,2.0,23,0.00,,,0.00,Wunderground v.1.15,2013-08-10 00:35:00,
2013-08-09 18:40:00,85.1,45.3,29.89,SW,233,0.0,0.0,25,0.00,,,0.00,Wunderground v.1.15,2013-08-10 00:40:00,
2013-08-09 18:45:00,84.4,44.7,29.89,SW,232,0.0,0.0,25,0.00,,,0.00,Wunderground v.1.15,2013-08-10 00:45:00,
2013-08-09 18:50:00,83.6,43.0,29.90,SW,232,0.0,1.0,24,0.00,,,0.00,Wunderground v.1.15,2013-08-10 00:50:00,
2013-08-09 19:00:00,83.0,43.5,29.90,SW,232,0.0,0.0,25,0.00,,,0.00,Wunderground v.1.15,2013-08-10 01:00:00,
2013-08-09 19:05:00,82.9,44.5,29.90,SW,232,0.0,0.0,26,0.00,,,0.00,Wunderground v.1.15,2013-08-10 01:05:00,
2013-08-09 19:10:00,82.7,44.3,29.90,SW,232,0.0,0.0,26,0.00,,,0.00,Wunderground v.1.15,2013-08-10 01:10:00,
2013-08-09 19:15:00,82.5,44.1,29.90,SW,232,0.0,0.0,26,0.00,,,0.00,Wunderground v.1.15,2013-08-10 01:15:00,
2013-08-09 19:25:00,82.1,43.8,29.90,SW,232,0.0,0.0,26,0.00,,,0.00,Wunderground v.1.15,2013-08-10 01:25:00,
2013-08-09 19:30:00,81.8,45.5,29.90,SW,232,0.0,1.0,28,0.00,,,0.00,Wunderground v.1.15,2013-08-10 01:30:00,
2013-08-09 19:35:00,81.5,44.3,29.91,SW,232,0.0,1.0,27,0.00,,,0.00,Wunderground v.1.15,2013-08-10 01:35:00,
2013-08-09 19:40:00,81.2,42.0,29.91,SW,232,0.0,1.0,25,0.00,,,0.00,Wunderground v.1.15,2013-08-10 01:40:00,
2013-08-09 19:45:00,81.1,40.9,29.91,SW,232,0.0,1.0,24,0.00,,,0.00,Wunderground v.1.15,2013-08-10 01:45:00,
2013-08-09 19:50:00,80.9,40.7,29.91,SW,232,0.0,0.0,24,0.00,,,0.00,Wunderground v.1.15,2013-08-10 01:50:00,
2013-08-09 19:55:00,80.7,40.5,29.91,SW,232,0.0,0.0,24,0.00,,,0.00,Wunderground v.1.15,2013-08-10 01:55:00,
2013-08-09 20:00:00,80.5,40.4,29.91,SW,232,0.0,0.0,24,0.00,,,0.00,Wunderground v.1.15,2013-08-10 02:00:00,
2013-08-09 20:05:00,80.2,40.1,29.92,SW,232,0.0,0.0,24,0.00,,,0.00,Wunderground v.1.15,2013-08-10 02:05:00,
2013-08-09 20:10:00,79.9,39.9,29.92,SW,232,0.0,0.0,24,0.00,,,0.00,Wunderground v.1.15,2013-08-10 02:10:00,
2013-08-09 20:15:00,79.8,39.8,29.93,SW,232,0.0,0.0,24,0.00,,,0.00,Wunderground v.1.15,2013-08-10 02:15:00,
2013-08-09 20:20:00,79.6,39.6,29.93,SW,229,0.0,0.0,24,0.00,,,0.00,Wunderground v.1.15,2013-08-10 02:20:00,
2013-08-09 20:25:00,79.6,39.6,29.93,SW,231,0.0,0.0,24,0.00,,,0.00,Wunderground v.1.15,2013-08-10 02:25:00,
2013-08-09 20:30:00,79.4,40.5,29.92,SW,231,0.0,1.0,25,0.00,,,0.00,Wunderground v.1.15,2013-08-10 02:30:00,
2013-08-09 20:35:00,79.3,40.4,29.93,SW,231,0.0,1.0,25,0.00,,,0.00,Wunderground v.1.15,2013-08-10 02:35:00,
2013-08-09 20:40:00,79.1,40.2,29.93,SW,231,0.0,0.0,25,0.00,,,0.00,Wunderground v.1.15,2013-08-10 02:40:00,
2013-08-09 20:45:00,78.9,40.1,29.94,SW,231,0.0,0.0,25,0.00,,,0.00,Wunderground v.1.15,2013-08-10 02:45:00,
2013-08-09 20:50:00,78.7,39.9,29.94,SW,231,0.0,0.0,25,0.00,,,0.00,Wunderground v.1.15,2013-08-10 02:50:00,
2013-08-09 20:55:00,78.7,40.9,29.94,SW,231,0.0,0.0,26,0.00,,,0.00,Wunderground v.1.15,2013-08-10 02:55:00,
2013-08-09 21:00:00,78.5,41.7,29.94,SW,231,0.0,0.0,27,0.00,,,0.00,Wunderground v.1.15,2013-08-10 03:00:00,
2013-08-09 21:05:00,78.3,42.5,29.94,SW,231,0.0,0.0,28,0.00,,,0.00,Wunderground v.1.15,2013-08-10 03:05:00,
2013-08-09 21:10:00,77.9,41.2,29.94,SW,231,0.0,0.0,27,0.00,,,0.00,Wunderground v.1.15,2013-08-10 03:10:00,
2013-08-09 21:15:00,77.5,40.9,29.94,SW,231,0.0,0.0,27,0.00,,,0.00,Wunderground v.1.15,2013-08-10 03:15:00,
2013-08-09 21:20:00,77.3,41.6,29.95,SW,231,0.0,0.0,28,0.00,,,0.00,Wunderground v.1.15,2013-08-10 03:20:00,
2013-08-09 21:25:00,77.0,41.4,29.95,SW,231,0.0,0.0,28,0.00,,,0.00,Wunderground v.1.15,2013-08-10 03:25:00,
2013-08-09 21:30:00,77.1,44.1,29.95,SW,231,0.0,2.0,31,0.00,,,0.00,Wunderground v.1.15,2013-08-10 03:30:00,
2013-08-09 21:35:00,77.3,45.1,29.95,SW,231,0.0,2.0,32,0.00,,,0.00,Wunderground v.1.15,2013-08-10 03:35:00,
2013-08-09 21:40:00,77.4,45.2,29.96,SW,230,0.0,0.0,32,0.00,,,0.00,Wunderground v.1.15,2013-08-10 03:40:00,
2013-08-09 21:45:00,77.6,45.4,29.96,SW,229,0.0,0.0,32,0.00,,,0.00,Wunderground v.1.15,2013-08-10 03:45:00,
2013-08-09 21:50:00,77.6,45.4,29.97,SW,229,0.0,0.0,32,0.00,,,0.00,Wunderground v.1.15,2013-08-10 03:50:00,
2013-08-09 22:54:00,75.4,48.0,29.98,N/A,-737280,0.0,-999.0,38,0.00,,,0.00,Wunderground v.1.15,2013-08-10 04:54:00,
2013-08-09 22:59:00,75.2,47.8,29.98,N/A,-737280,0.0,-999.0,38,0.00,,,0.00,Wunderground v.1.15,2013-08-10 04:59:00,
2013-08-09 23:04:00,75.1,47.8,29.98,SSE,158,0.0,-999.0,38,0.00,,,0.00,Wunderground v.1.15,2013-08-10 05:04:00,
2013-08-09 23:09:00,75.0,47.0,29.98,SSE,158,0.0,-999.0,37,0.00,,,0.00,Wunderground v.1.15,2013-08-10 05:09:00,
2013-08-09 23:14:00,75.0,47.0,29.98,SSE,158,0.0,-999.0,37,0.00,,,0.00,Wunderground v.1.15,2013-08-10 05:14:00,
2013-08-09 23:19:00,75.0,47.0,29.98,SE,135,0.0,-999.0,37,0.00,,,0.00,Wunderground v.1.15,2013-08-10 05:19:00,
2013-08-09 23:24:00,75.0,46.2,29.98,SE,135,0.0,-999.0,36,0.00,,,0.00,Wunderground v.1.15,2013-08-10 05:24:00,
2013-08-09 23:29:00,74.9,46.1,29.98,SE,135,0.0,-999.0,36,0.00,,,0.00,Wunderground v.1.15,2013-08-10 05:29:00,
2013-08-09 23:34:00,74.7,46.7,29.99,N/A,-737280,0.0,-999.0,37,0.00,,,0.00,Wunderground v.1.15,2013-08-10 05:34:00,
2013-08-09 23:39:00,74.5,47.2,29.99,SE,135,0.0,-999.0,38,0.00,,,0.00,Wunderground v.1.15,2013-08-10 05:39:00,
2013-08-09 23:44:00,74.3,47.7,29.99,N/A,-737280,0.0,-999.0,39,0.00,,,0.00,Wunderground v.1.15,2013-08-10 05:44:00,
2013-08-09 23:49:00,74.1,46.9,29.99,N/A,-737280,0.0,-999.0,38,0.00,,,0.00,Wunderground v.1.15,2013-08-10 05:49:00,
2013-08-09 23:54:00,73.9,46.7,30.00,N/A,-737280,0.0,-999.0,38,0.00,,,0.00,Wunderground v.1.15,2013-08-10 05:54:00,
2013-08-09 23:59:00,73.6,47.1,30.00,SE,135,0.0,-999.0,39,0.00,,,0.00,Wunderground v.1.15,2013-08-10 05:59:00,